sat.trackr.live / text

‹ back to catalog

STARLINK-31083

NORAD 58670 · 2023-211D

PAYLOAD ACTIVE UNKNOWN

§ Identity

Operator
Country
US
Launch date
2023-12-29
Launch site
AFETR
Launch vehicle
Mass (kg)
RCS (m²)

Purposes: comms

External: N2YO · Heavens-Above · Gunter

§ Orbital elements

Epoch: 2026-05-25T00:40:15.489984Z

Period
94.27 min
Inclination
43.0067°
Eccentricity
0.0001285
Mean motion
15.27585233 rev/d
Perigee alt
482.2 km
Apogee alt
483.9 km
Semi-major
6,861.2 km
B*
9.5622e-5
RAAN
13.8116°
Arg perigee
266.1560°
Mean anomaly
93.9145°
Rev number
13,414

§ Raw data

STARLINK-310831 58670U 23211D   26145.02795706  .00002370  00000+0  95622-4 0  99982 58670  43.0067  13.8116 0001285 266.1560  93.9145 15.27585233134145

JSON: /api/v1/satellites/58670 · /tle

For live sub-satellite position, see the globe view (requires WebGL).

§ Visibility from observer

Set your observer location to see the next 7 days of passes ≥ 10°. The values pass through the URL so the page stays shareable.

No JS? Fill the form by hand. The geolocation button needs JavaScript.